Location: Unspecified
(48.2082°N, 0.0000°E)
Time: 14:13:53
(UTC+00:00)

Altair - Pass Details

Date: 21 June 2019
Orbit: 1501 x 1683 km, 47.2° (Epoch: 22 July)

Event Time Altitude Azimuth Distance (km) Brightness Sun altitude
Rises 22:58:25 0° 270° (W) 4,774 10.3 -17.0°
Reaches altitude 10° 23:01:27 10° 270° (W) 3,813 9.7 -17.1°
Maximum altitude 23:11:15 86° 184° (S) 1,652 7.6 -17.5°
Drops below altitude 10° 23:21:24 10° 97° (E) 3,933 9.5 -17.8°
Sets 23:24:35 0° 97° (E) 4,929 10.0 -17.9°
